{"data":{"norad_id":67499,"epoch":"2026-09-19T10:44:37.385952Z","epoch_age_seconds":163144,"freshness":"FRESH","line1":"1 67499U 26012G   26262.44765493  .00009233  00000+0  34461-3 0  9993","line2":"2 67499  43.0008 300.2573 0001050 252.0216 108.0521 15.27581343 37394","mean_motion":15.27581343,"eccentricity":0.000105,"inclination_deg":43.0008,"raan_deg":300.2573,"arg_perigee_deg":252.0216,"mean_anomaly_deg":108.0521,"bstar":0.00034461,"rev_number":3739,"period_min":94.266665837382,"perigee_km":482.32465049962,"apogee_km":483.76549873529,"semimajor_km":6861.1820746175,"source":"CELESTRAK","updated_at":"2026-09-20T09:00:43.557417Z"}}